Frederick, MD

2:03 AM EST on December 04, 2016 (GMT -0500)
Frederick Municipal

Weather History for KFDK - October, 2012

Change the Weather History Date:

Monday, October 15, 2012

  Actual Average (KHGR) Record (KHGR)
Temperature  
Mean Temperature 60 °F 55 °F  
Max Temperature 66 °F 65 °F 79 °F (2008)
Min Temperature 53 °F 44 °F 32 °F (2006)
Degree Days  
Heating Degree Days 6 10  
Month to date heating degree days 124  
Since 1 July heating degree days 198  
Cooling Degree Days 0 0  
Month to date cooling degree days 9  
Year to date cooling degree days 968  
Growing Degree Days 10 (Base 50)    
Moisture  
Dew Point 57 °F    
Average Humidity 83    
Maximum Humidity 100    
Minimum Humidity 68    
Precipitation  
Precipitation 0.00 in 0.08 in 1.45 in (2014)
Month to date precipitation 1.60  
Year to date precipitation 31.90  
Sea Level Pressure  
Sea Level Pressure 29.81 in    
Wind  
Wind Speed 9 mph (SW)    
Max Wind Speed 13 mph    
Max Gust Speed 21 mph    
Visibility 9 miles    
Events Rain    
T = Trace of Precipitation, MM = Missing Value Source: NWS Daily Summary

Daily Weather History Graph

Daily Weather History Graph

Search for Another Location

Airport or City:

Trip Planner

Search our weather history database for the weather conditions in past years. The results will help you decide how hot, cold, wet, or windy it might be!

Date:

Astronomy

Oct. 15, 2012 Rise Set
Actual Time 7:19 AM EDT 6:29 PM EDT
Civil Twilight 6:52 AM EDT 6:56 PM EDT
Nautical Twilight 6:21 AM EDT 7:27 PM EDT
Astronomical Twilight 5:50 AM EDT 7:59 PM EDT
Moon 7:27 AM EDT (10/15) 6:28 PM EDT (10/15)
Length of Visible Light 12h 04m
Length of Day
11h 09m
New Moon, 0% of the Moon is Illuminated
Oct 15
New Moon
Oct 21
First Quarter
Oct 29
Full
Nov 6
Last Quarter
Nov 13
New

Hourly Weather History & Observations

Time (EDT) Temp. Dew Point Humidity Pressure Visibility Wind Dir Wind Speed Gust Speed Precip Events Conditions
12:00 AM 64.4 °F 55.4 °F 73% 29.94 in 10.0 mi South 9.2 mph - N/A   Clear
12:20 AM 64.4 °F 55.4 °F 73% 29.92 in 10.0 mi South 11.5 mph - N/A   Clear
12:40 AM 62.6 °F 55.4 °F 77% 29.92 in 10.0 mi South 9.2 mph 16.1 mph N/A   Clear
1:05 AM 62.6 °F 55.4 °F 77% 29.91 in 10.0 mi SSW 12.7 mph - N/A   Clear
1:25 AM 62.6 °F 57.2 °F 82% 29.90 in 10.0 mi South 6.9 mph - N/A   Clear
1:45 AM 62.6 °F 57.2 °F 82% 29.89 in 10.0 mi South 10.4 mph - N/A   Mostly Cloudy
2:10 AM 62.6 °F 57.2 °F 82% 29.87 in 10.0 mi South 10.4 mph - N/A   Scattered Clouds
2:30 AM 62.6 °F 59.0 °F 88% 29.87 in 10.0 mi SSW 9.2 mph - N/A   Mostly Cloudy
2:50 AM 62.6 °F 59.0 °F 88% 29.86 in 10.0 mi SSW 10.4 mph 16.1 mph N/A   Overcast
3:10 AM 62.6 °F 59.0 °F 88% 29.85 in 10.0 mi South 8.1 mph - N/A   Overcast
3:35 AM 62.6 °F 59.0 °F 88% 29.84 in 10.0 mi South 6.9 mph - N/A   Mostly Cloudy
3:55 AM 62.6 °F 59.0 °F 88% 29.83 in 10.0 mi SSW 6.9 mph - N/A   Mostly Cloudy
4:15 AM 62.6 °F 59.0 °F 88% 29.82 in 10.0 mi South 8.1 mph - N/A   Overcast
4:35 AM 64.4 °F 59.0 °F 83% 29.82 in 10.0 mi SSW 11.5 mph - N/A   Overcast
5:00 AM 64.4 °F 59.0 °F 83% 29.80 in 10.0 mi SSW 11.5 mph - N/A   Mostly Cloudy
5:20 AM 64.4 °F 59.0 °F 83% 29.81 in 10.0 mi SSW 10.4 mph - N/A   Scattered Clouds
5:40 AM 64.4 °F 59.0 °F 83% 29.80 in 10.0 mi South 8.1 mph - N/A   Scattered Clouds
6:00 AM 64.4 °F 59.0 °F 83% 29.79 in 10.0 mi South 9.2 mph - N/A   Clear
6:25 AM 64.4 °F 59.0 °F 83% 29.79 in 10.0 mi SSW 10.4 mph 16.1 mph N/A   Clear
6:45 AM 64.4 °F 60.8 °F 88% 29.79 in 10.0 mi SW 9.2 mph - N/A   Clear
6:50 AM 64.4 °F 59.0 °F 83% 29.79 in 10.0 mi SSW 9.2 mph - N/A   Clear
7:45 AM 64.4 °F 60.8 °F 88% 29.78 in 10.0 mi SSW 9.2 mph - N/A   Mostly Cloudy
8:45 AM 66.2 °F 60.8 °F 83% 29.79 in 10.0 mi SW 10.4 mph 17.3 mph N/A   Mostly Cloudy
9:50 AM 66.2 °F 60.8 °F 83% 29.80 in 10.0 mi SSW 9.2 mph - N/A   Overcast
10:45 AM 64.4 °F 62.6 °F 94% 29.79 in 7.0 mi WNW 5.8 mph - N/A   Light Drizzle
11:51 AM 64.4 °F 62.6 °F 94% 29.77 in 4.0 mi SSW 6.9 mph - N/A Rain Rain
12:52 PM 62.6 °F 62.6 °F 100% 29.74 in 2.5 mi Variable 3.5 mph - N/A Rain Rain
1:45 PM 62.6 °F 62.6 °F 100% 29.74 in 4.0 mi SSW 8.1 mph - N/A Rain Light Rain
2:36 PM 64.4 °F 64.4 °F 100% 29.73 in 7.0 mi SSW 5.8 mph - N/A   Overcast
2:55 PM 66.2 °F 64.4 °F 94% 29.73 in 10.0 mi SW 3.5 mph - N/A   Mostly Cloudy
3:45 PM 62.6 °F 59.0 °F 88% 29.73 in 10.0 mi Calm Calm - N/A   Overcast
4:45 PM 64.4 °F 60.8 °F 88% 29.71 in 10.0 mi NNE 4.6 mph - N/A   Mostly Cloudy
5:48 PM 62.6 °F 59.0 °F 88% 29.72 in 10.0 mi Calm Calm - N/A   Mostly Cloudy
7:50 PM 60.8 °F 50.0 °F 68% 29.76 in 10.0 mi NW 9.2 mph - N/A   Clear
8:55 PM 57.2 °F 50.0 °F 77% 29.79 in 10.0 mi WNW 5.8 mph - N/A   Clear
9:15 PM 55.4 °F 46.4 °F 72% 29.80 in 10.0 mi NW 3.5 mph - N/A   Clear
9:35 PM 55.4 °F 48.2 °F 77% 29.81 in 10.0 mi NW 6.9 mph - N/A   Scattered Clouds
9:55 PM 55.4 °F 48.2 °F 77% 29.82 in 10.0 mi NW 5.8 mph - N/A   Mostly Cloudy
10:20 PM 55.4 °F 46.4 °F 72% 29.82 in 10.0 mi NW 10.4 mph 20.7 mph N/A   Scattered Clouds
10:40 PM 55.4 °F 46.4 °F 72% 29.83 in 10.0 mi NW 5.8 mph - N/A   Clear
11:00 PM 53.6 °F 46.4 °F 77% 29.83 in 10.0 mi NW 11.5 mph 17.3 mph N/A   Clear
11:20 PM 53.6 °F 46.4 °F 77% 29.84 in 10.0 mi NW 11.5 mph - N/A   Scattered Clouds
11:45 PM 53.6 °F 46.4 °F 77% 29.85 in 10.0 mi WNW 6.9 mph - N/A   Overcast